COSMOS 2251 DEB, 34346

Orbit data source: Space-Track

COSMOS 2251 DEB, 34346 is space debris in LEO originally from a launch on Wed, 16 Jun 1993 UTC launched from the Plesetsk Missile And Space Complex (PKMTR). The debris from Iridium 33, an American commercial communications satellite, has been tracked extensively since its accidental collision with the defunct Russian satellite Cosmos 2251 in 2009. This event, occurring at high speed in low Earth orbit (LEO), generated thousands of pieces of space debris, significantly increasing the risk of further collisions. The Iridium 33 debris cloud has impacted space traffic management and orbital debris mitigation strategies, making it a subject of ongoing study in space situational awareness.

Loading next visibility...
Identifier
34346, 1993-036PU
Orbit
LEO
Country
Flag of CISCIS
Related business
Manufacturer
Unknown
Mission
Spacecraft
Bus & Motor
Unknown
Mass
Unknown
Launch date (UTC)
1993-06-16 (33 years ago)
Launch vehicle
Unknown
Launch site
Plesetsk Missile And Space Complex (PKMTR)
Object type
Payload
Rocket body
Debris
Shape & HBR
Unknown shape, 0.1 m
Radar Cross Section
Small (<0.1 m²)

Expand to show TLE details & history
Last TLE update: 16 hours ago

TLE from 16 hours ago
0 COSMOS 2251 DEB
1 34346U 93036PU  26062.73619838  .00001362  00000-0  78111-3 0  9995
2 34346  73.9942 171.6599 0208765 331.7439 179.2920 14.00012990865434
Epoch: 2026-03-03T17:40Z
TLE epoch observation values (Epoch: 2026-03-03T17:40:07.540Z)
Latitude
27.75987°
Longitude
-83.52162°
Altitude
1,048.633 km
Speed
7.253 km/s
True Right ascension
22h 52m 04s
True Declination
27° 37' 26"
Sunlit
Object was in daylight at epoch
Visualization orbit readout
Latitude
Unknown
Longitude
Unknown
Altitude
Unknown
Speed
Unknown
Apparent Right ascension
Unknown
Apparent Declination
Unknown
Sunlit
N/A
Visualization observer readout
Local Sidereal Time
13:39:13
Azimuth
Unknown
Elevation
Unknown
Doppler factor
Unknown
Orbital elements
Apogee altitude
1,043.179 km
Perigee altitude
739.653 km
Semi-major axis
7,269.553 km
Eccentricity
0.02088
Inclination
73.9942°
RAAN
171.6599°
Arg. of periapsis
331.7439°
True anomaly
179.32081°
Mean anomaly
179.292°
Eccentric anomaly
179.30648°
Mean motion
3.50172 °/min
Orbital period
102.81 mins
BSTAR
0.00078111

Documentation

Showing up to 5 results
|